User: anonymous   Login
Location: Unspecified
(0.0000°N, 0.0000°E)
Time: 18:53:19
(UTC+00:00)
Language:

QB50P2 - Orbit

View from above orbital plane
View from above orbital plane
View from above satellite
View from above satellite

Ground track
Ground track

The orbit data is extracted from the following two-line orbital elements,

1 40032U 14033Y   19340.51369052  .00000201  00000-0  27663-4 0  9999
2 40032  97.8998 257.7820 0011007 208.3940 151.6678 14.88563499296656
Epoch (UTC): 06 December 2019 12:19:42
Eccentricity: 0.0011007
inclination: 97.8998°
perigee height: 595 km
apogee height: 610 km
right ascension of ascending node: 257.7820°
argument of perigee: 208.3940°
revolutions per day: 14.88563499
mean anomaly at epoch: 151.6678°
orbit number at epoch: 29665

The dashed part of the orbit path shows where the satellite is in the earth's shadow,  

DLR